Showing default

O3B FM18, 44115

Orbit data source: Space-Track

O3B FM18, 44115 is a payload satellite owned by O3B SES (JE) that was launched on Thu, 04 Apr 2019 UTC via a SOYUZ-ST-B launch vehicle from the French Guiana (FRGUI). Payloads include a variety of satellites, spacecraft, and rockets equipped with specific instruments for various scientific and technological missions. These include communications satellites like Starlink; space stations such as the ISS; scientific satellites like the Hubble; Earth observation satellites from companies like Planet Labs, Umbra, and HawkEye 360; GPS; miniature CubeSats for education and research; and military/defense satellites.

Loading next visibility...
O3B FM18 details
Identifier
44115, 2019-020D
Orbit
Active
Last TLE update20 hours ago
Origin
Flag of JEO3B SES (JE / O3B)
ManufacturerThales Alenia
MissionOperational Commercial Communications
Bus & MotorPRISMA?, LS-400 AOCS?
Mass700 kg wet, ~500 kg dry
Launch date (UTC)
2019-04-04 (6 years ago)
Launch vehicle
SOYUZ-ST-B
Launch site
French Guiana (FRGUI)
Object type
Payload
Rocket body
Debris
Shape & HBRTrap Box + 2 Pan, 12 m
Radar Cross Section21.980 m², Large (>1 m²)

Expand to show TLE details & history

TLE from 20 hours ago
0 O3B FM18
1 44115U 19020D   24339.37155932 -.00000009  00000-0  00000-0 0  9993
2 44115   0.0530 359.7106 0002935 256.0665 104.1954  5.00114881103641
Epoch: 2024-12-04T08:55Z
Definitive object data (Epoch: 2024-12-04T08:55:02.725Z)
Latitude0.00234°
Longitude152.57093°
Altitude8,065.424 km
Speed5.254 km/s
True Right ascension23h 59m 59s
True Declination0° 00' 08"
Sunlit
Object was in daylight at TLE epoch
Visualization TLE readout
Latitude0.04686°
Longitude-155.18232°
Altitude8,068.253 km
Speed5.253 km/s
Apparent Right ascension03h 50m 48s
Apparent Declination-22° 45' 07"
Sunlit
Object is in daylight
Visualization observer readout
Local Sidereal Time02:45:40
Azimuth163.348° S
Elevation25.516°
Doppler factor1
Orbital elements
Apogee altitude8,073.201 km
Perigee altitude8,064.72 km
Semi-major axis14,447.098 km
Eccentricity0.0002935
Inclination0.053°
RAAN359.7106°
Arg. of periapsis256.0665°
True anomaly104.228°
Mean anomaly104.1954°
Eccentric anomaly104.2117°
Mean motion1.24989 °/min
BSTARUnknown
Orbital period288.03 mins
Loading maneuver chart data...
Loading historical data...
Loading historical data...
Loading historical data...
Loading historical data...
Loading historical data...
Loading historical data...
Loading historical data...
Other satellites on launch #20 in the year 2019 (2019-04-04 UTC)

O3B FM18 Visibility forecast

Observer location: undefined°, undefined

Span
Click to sort rows by Start time (UTC) header in descending order
Start Az.
Max El. time (UTC)
Max El. Az.
Max El.
End time (UTC)
End Az.
29 mins2024-12-05 04:48:12.361Z163.367° S2024-12-05 04:48:12.361Z163.367° S23.27°2024-12-05 05:17:12.361Z127.51° SE
79 mins2024-12-05 09:58:12.361Z231.876° WSW2024-12-05 10:37:12.361Z180.331° SSW24.414°2024-12-05 11:17:12.361Z127.579° SE
78 mins2024-12-05 15:59:12.361Z230.87° WSW2024-12-05 16:37:12.361Z180.322° SSW24.328°2024-12-05 17:17:12.361Z127.582° SE
78 mins2024-12-05 21:59:12.361Z230.787° WSW2024-12-05 22:37:12.361Z180.249° SSW24.326°2024-12-05 23:17:12.361Z127.513° SE
49 mins2024-12-06 03:59:12.361Z230.796° WSW2024-12-06 04:37:12.361Z180.26° SSW24.411°2024-12-06 04:48:12.361Z163.37° S
|